This is the latest recevied weather packets stored in our database for station/object VO2AGO. If no packets are shown the sender has not sent any weather packets the latest 10 day(s).
| Time | Temp. | Humidity | Pressure | Rain* | Wind** | Luminosity | Snow |
|---|---|---|---|---|---|---|---|
| 1777547152 | 3.33° C | - | - | - | 0 m/s | 273 W/m² | - |
| 1777546701 | 3.33° C | - | - | - | 0 m/s | 301 W/m² | - |
| 1777546251 | 2.78° C | - | - | - | 0 m/s | 277 W/m² | - |
| 1777545801 | 2.78° C | - | - | - | 0 m/s | 235 W/m² | - |
| 1777545351 | 2.22° C | - | - | - | 0 m/s | 196 W/m² | - |
| 1777544902 | 2.22° C | - | - | - | 0 m/s | 135 W/m² | - |
| 1777544452 | 1.67° C | - | - | - | 0 m/s | 112 W/m² | - |
| 1777544001 | 1.67° C | - | - | - | 0 m/s | 96 W/m² | - |
| 1777543552 | 1.67° C | - | - | - | 0 m/s | 87 W/m² | - |
| 1777543102 | 1.11° C | - | - | - | 0 m/s | 96 W/m² | - |
| 1777542652 | 1.11° C | - | - | - | 0 m/s | 110 W/m² | - |
| 1777542201 | 1.11° C | - | - | - | 0 m/s | 98 W/m² | - |
| 1777541751 | 0.56° C | - | - | - | 0 m/s | 68 W/m² | - |
| 1777541301 | 0.56° C | - | - | - | 0 m/s | 42 W/m² | - |
| 1777540852 | 0.56° C | - | - | - | 0 m/s | 38 W/m² | - |
| 1777540401 | 0.56° C | - | - | - | 0 m/s | 22 W/m² | - |
| 1777539951 | 0.56° C | - | - | - | 0 m/s | 13 W/m² | - |
| 1777539502 | 0.56° C | - | - | - | 0 m/s | 9 W/m² | - |
| 1777539051 | 0.56° C | - | - | - | 0 m/s | 5 W/m² | - |
| 1777538602 | 0.56° C | - | - | - | 0 m/s | 3 W/m² | - |
| 1777538153 | 0.56° C | - | - | - | 0 m/s | 1 W/m² | - |
| 1777537702 | 0.56° C | - | - | - | 0 m/s | 0 W/m² | - |
| 1777537251 | 1.11° C | - | - | - | 0 m/s | 0 W/m² | - |
| 1777536802 | 1.67° C | - | - | - | 0 m/s | 0 W/m² | - |
| 1777536351 | 1.67° C | - | - | - | 0 m/s | 0 W/m² | - |
* Rain since midnight (hover to see other rain measurements)
** Current wind speed in m/s (hover to see current wind gust speed)